Flag for Ukraine Weather past 2 weeks in Kyiv, Ukraine

34 °F


Feels Like: 31 °F
Forecast: 28 / 47 °F
Wind: 3 mph from East

Location: Kyiv

Current Time: Oct 8, 2015 at 9:50:20 PM

Latest Report: Oct 8, 2015 at 9:30 PM

Visibility: 10 mi

Pressure: 30.24 "Hg

Humidity: 65%

Dew point: 23 °F

Location of KyivLocation

Historic Weather in Kyiv — Graph


Kyiv temperature yesterday

Maximum temperature yesterday: 52 °F (at 12:00 AM)
Minimum temperature yesterday: 36 °F (at 10:30 PM)
Average temperature yesterday: 44 °F

Past Weeks' High & Low Weather Summary

High82 °F (Sep 24, 1:30 PM)100% (Oct 5, 7:00 AM)30.45 "Hg (Oct 5, 7:00 AM)
Low25 °F (Oct 8, 5:00 AM)23% (Oct 3, 2:30 PM)29.80 "Hg (Oct 6, 3:30 PM)
Average57 °F67%30.15 "Hg
* Reported Sep 23 8:00 PM — Oct 8 8:30 PM, Kyiv, Weather by CustomWeather, © 2015

Note: Actual official high and low records may vary slightly from our data, if they occured in-between our weather recording intervals... More about our weather records


Kyiv weather history for previous 24 hours

Time TempWeatherWind HumidityBarometerVisibility
8:30 PM
Thu, Oct 8
36 °FClear.3 mph65%30.24 "Hg10 mi
8:00 PM37 °FClear.3 mph60%30.24 "Hg10 mi
7:30 PM37 °FPassing clouds.3 mph60%30.24 "HgN/A
7:00 PM39 °FSunny.3 mph56%30.24 "Hg10 mi
6:30 PM41 °FSunny.6 mph49%30.24 "Hg10 mi
6:00 PM43 °FSunny.6 mph49%30.24 "Hg10 mi
5:30 PM45 °FPassing clouds.3 mph46%30.24 "HgN/A
5:00 PM46 °FSunny.6 mph43%30.24 "Hg10 mi
4:30 PM46 °FSunny.6 mph43%30.24 "Hg10 mi
4:00 PM46 °FPassing clouds.6 mph43%30.24 "HgN/A
3:30 PM46 °FPassing clouds.6 mph43%30.24 "HgN/A
3:00 PM48 °FPassing clouds.3 mph40%30.24 "HgN/A
2:30 PM48 °FPassing clouds.10 mph40%30.27 "HgN/A
2:00 PM48 °FPassing clouds.3 mph32%30.27 "HgN/A
1:30 PM48 °FPassing clouds.8 mph34%30.27 "HgN/A
1:00 PM46 °FSunny.6 mph37%30.27 "Hg10 mi
12:30 PM45 °FPassing clouds.6 mph39%30.27 "HgN/A
12:00 PM45 °FSunny.6 mph42%30.27 "Hg10 mi
11:30 AM45 °FScattered clouds.1 mph42%30.27 "HgN/A
11:00 AM45 °FScattered clouds.6 mph46%30.27 "HgN/A
10:30 AM43 °FSunny.6 mph57%30.27 "Hg10 mi
10:00 AM43 °FSunny.1 mph61%30.27 "Hg10 mi
9:30 AM41 °FSunny.1 mph66%30.27 "Hg10 mi
9:00 AM36 °FSunny.1 mph75%30.27 "Hg10 mi
8:30 AM32 °FSunny.1 mph75%30.27 "Hg10 mi
8:00 AM28 °FClear.3 mph86%30.27 "Hg10 mi
7:30 AM25 °FClear.3 mph93%30.27 "Hg10 mi
7:00 AM27 °FClear.3 mph86%30.27 "Hg10 mi
6:30 AM27 °FClear.3 mph86%30.27 "Hg10 mi
6:00 AM27 °FClear.1 mph86%30.27 "Hg10 mi
5:30 AM27 °FClear.1 mph86%30.27 "Hg10 mi
5:00 AM25 °FClear.1 mph86%30.27 "Hg10 mi
4:30 AM27 °FClear.1 mph86%30.27 "Hg10 mi
4:00 AM28 °FClear.1 mph86%30.27 "Hg10 mi
3:30 AM28 °FClear.1 mph80%30.27 "Hg10 mi
3:00 AM30 °FClear.1 mph80%30.27 "Hg10 mi
2:30 AM30 °FClear.1 mph80%30.27 "Hg10 mi
2:00 AM27 °FClear.1 mph86%30.27 "Hg10 mi
1:30 AM28 °FClear.No wind80%30.27 "Hg10 mi
1:00 AM28 °FClear.No wind80%30.27 "Hg10 mi
12:00 AM32 °FClear.No wind69%30.24 "Hg10 mi
11:30 PM
Wed, Oct 7
36 °FClear.No wind60%30.24 "Hg10 mi
11:00 PM36 °FClear.6 mph56%30.24 "Hg10 mi
10:30 PM36 °FClear.6 mph56%30.24 "Hg10 mi
10:00 PM39 °FClear.6 mph48%30.24 "Hg10 mi
9:30 PM39 °FClear.3 mph48%30.24 "Hg10 mi
9:00 PM41 °FClear.8 mph45%30.24 "Hg10 mi
Weather by CustomWeather, © 2015

See weather overviewHow to use our weather pages